Showing default

UVSQ-SAT NG, 63251

Orbit data source: Space-Track

UVSQ-SAT NG, 63251 is a payload satellite owned by LATMOS (FR) in SSO that was launched on Sat, 15 Mar 2025 UTC via an FALCON 9 launch vehicle from the Air Force Western Test Range (AFWTR). Payload-class satellites include a variety of spacecraft equipped with specific instruments for various scientific and technological missions. These include communications satellites like Starlink; space stations such as the ISS; scientific satellites like the Hubble; Earth observation satellites from companies like Planet Labs, Umbra, and HawkEye 360; GPS; miniature CubeSats for education and research; and military/defense satellites.

Loading next visibility...
Identifier
63251, 2025-052AT
Orbit
SSO
Country
Flag of FRFR
Related business
Manufacturer
LATMOS
Mission
Operational Civil Earth Obs Sci
Bus & Motor
CUBESAT 6U, Unknown motor
Mass
12 kg wet, 12 kg dry
Launch date (UTC)
2025-03-15 (1 year ago)
Launch vehicle
FALCON 9
Launch site
Air Force Western Test Range (AFWTR)
Object type
Payload
Rocket body
Debris
Shape & HBR
Box + 2 Pan, 1.0 m
Radar Cross Section
0.098 m², Small (<0.1 m²)

Expand to show TLE details & history
Last TLE update: 21 hours ago

TLE from 21 hours ago
0 UVSQ-SAT NG
1 63251U 25052AT  26120.68104853  .00002137  00000-0  19983-3 0  9993
2 63251  97.6911  13.0623 0003906  44.1918 315.9614 14.95162390 61536
Epoch: 2026-04-30T16:20Z
TLE epoch observation values (Epoch: 2026-04-30T16:20:42.592Z)
Latitude
-0.00002°
Longitude
-90.73934°
Altitude
582.963 km
Speed
7.57 km/s
True Right ascension
00h 52m 14s
True Declination
0° 00' 00"
Sunlit
Object was in daylight at epoch
Visualization orbit readout
Latitude
Unknown
Longitude
Unknown
Altitude
Unknown
Speed
Unknown
Apparent Right ascension
Unknown
Apparent Declination
Unknown
Sunlit
N/A
Visualization observer readout
Local Sidereal Time
20:34:11
Azimuth
Unknown
Elevation
Unknown
Doppler factor
Unknown
Orbital elements
Apogee altitude
581.598 km
Perigee altitude
576.163 km
Semi-major axis
6,957.017 km
Eccentricity
0.00039
Inclination
97.6911°
RAAN
13.0623°
Arg. of periapsis
44.1918°
True anomaly
315.93027°
Mean anomaly
315.9614°
Eccentric anomaly
315.94584°
Mean motion
3.74032 °/min
Orbital period
96.25 mins
BSTAR
0.00019983
Loading maneuver chart data...
Computing Atmospheric mass density...
Loading historical data...
Loading historical data...
Loading historical data...
Loading historical data...
Loading historical data...
Loading historical data...
Loading historical data...

Documentation

Showing up to 5 results
|